[[{"header":{"parameterUnit":"m.s-1","parameterCategory":1,"la1":30.2991,"la2":30.254,"lo1":-89.0895,"lo2":-89.0444,"dy":0.0017,"dx":0.0017,"nx":28,"ny":28,"refTime":"2023-07-22T09:00:00:Z","depth":0,"parameterNumber":2,"parameterNumberName":"U-component_of_WINDS"},"data":[0,0,0,0,0,0,0,0,0,0,0,0,0,0,0,0,0,0,0,0,0,0,0,0,0,0,0,0,0,0,0,0,0,0,0,0,0,0,0,0,0,0,0,0,0,0,0,0,0,0,0,0,0,0,0,0,0,0,1.9827,1.9826,0,1.9707,1.9706,1.9704,1.9572,1.957,1.9568,1.9567,1.9444,1.9442,1.9441,0,0,0,0,0,0,0,0,0,0,0,0,0,1.9946,1.9944,1.9828,1.9826,1.9825,1.9707,1.9706,1.9704,1.9573,1.957,1.9568,1.9566,1.9444,1.9442,1.9441,0,0,0,0,0,0,0,0,0,0,0,0,0,1.9867,1.9944,1.9828,1.9745,1.9736,1.9708,1.9705,1.9703,1.9573,1.957,1.9567,1.9565,1.9445,1.9442,1.944,1.9484,0,0,1.9433,1.9432,0,0,0,0,0,0,0,0,1.9872,1.9863,1.9759,1.9751,1.9741,1.9652,1.9702,1.963,1.9574,1.9635,1.9567,1.9563,1.9515,1.9507,1.9491,1.9478,1.9473,1.9433,1.9432,1.9431,1.943,0,0,0,0,0,0,0,1.9877,1.9867,1.978,1.9757,1.9746,1.9714,1.97,1.9688,1.9593,1.9629,1.962,1.9607,1.951,1.9493,1.9487,1.9471,1.9433,1.9431,1.943,1.9429,1.949,1.9493,0,0,0,0,0,0,1.9895,1.9873,1.9784,1.9776,1.98,1.9715,1.9698,1.9683,1.9592,1.9576,1.961,1.9601,1.9498,1.949,1.9482,1.9528,1.9431,1.9429,1.9427,1.9487,1.9491,1.9494,0,0,0,0,0,0,1.9898,1.9888,1.9788,1.9822,1.9806,1.9715,1.9699,1.9682,1.9665,1.9577,1.956,1.961,1.9496,1.9485,1.9485,1.9522,1.9428,1.9426,1.9484,1.9488,1.9493,1.9621,0,0,0,0,0,0,1.9902,1.989,1.9905,1.9823,1.9805,1.9793,1.9702,1.9682,1.9662,1.965,1.9573,1.9558,1.9493,1.9489,1.9483,1.9518,1.9424,1.948,1.9486,1.9491,1.9613,1.963,1.9644,0,0,0,0,0,1.9907,1.9946,1.9907,1.9897,1.9822,1.9796,1.9785,1.971,1.9665,1.968,1.9624,1.956,1.9519,1.949,1.9482,1.9517,1.9477,1.9484,1.9491,1.9607,1.9627,1.9643,0,0,0,0,0,0,2.0034,1.9933,1.9889,1.9902,1.9859,1.9773,1.9789,1.9733,1.9701,1.9691,1.9598,1.9582,1.9594,1.9554,1.9524,1.9555,1.9489,1.9495,1.958,1.9598,1.9613,1.9623,1.9422,0,0,0,0,0,2.0064,2.0051,1.9963,1.9984,1.9964,1.9881,1.9867,1.9812,1.9763,1.9744,1.9688,1.9643,1.962,1.9607,1.958,1.9607,1.9589,1.9627,1.9642,1.9655,1.9661,1.9675,1.9691,1.9516,1.9516,1.9516,0,0,2.0125,2.0069,2.0066,2.0008,1.9968,1.9957,1.9866,1.9858,1.9849,1.9743,1.9739,1.9697,1.9641,1.9655,1.9658,1.9623,1.9706,1.9664,1.9675,1.9674,1.9683,1.97,1.9715,1.9521,1.952,1.9519,0,0,2.0232,2.0187,2.02,2.0162,2.0102,2.0047,2.0051,1.9974,1.9942,1.9938,1.9858,1.9847,1.9809,1.9773,1.975,1.9845,1.9786,1.9839,1.9919,1.9933,1.9947,1.9959,1.9995,2.0009,1.9845,1.9846,1.9846,0,2.0316,2.0295,2.0214,2.0211,2.0189,2.0093,2.0107,2.0073,2.0009,1.9996,1.9957,1.9909,1.9865,1.987,1.9894,1.9878,1.988,1.9848,1.9951,1.9962,1.9972,2.0006,2.0019,1.9853,1.9852,1.9851,1.9851,0,2.0402,2.039,2.0408,2.0349,2.0329,2.0334,2.0255,2.0244,2.0192,2.0142,2.014,2.0083,2.0045,2.0042,1.999,2.0041,2.0021,1.9968,1.99,1.9997,2.0027,2.0039,1.9863,1.986,1.9858,1.9857,0,0,2.0585,2.0482,2.049,2.0463,2.0392,2.0381,2.0383,2.0346,2.034,2.0299,2.0299,2.0271,2.0222,2.0196,2.014,2.0152,2.0235,2.0098,2.0095,2.0127,2.0289,2.0331,2.0347,2.0195,2.0197,2.0198,2.0295,0,2.068,2.0677,2.0605,2.0624,2.0613,2.0522,2.0524,2.0481,2.0435,2.0419,2.0367,2.0349,2.0285,2.0269,2.0277,2.0223,2.0266,2.0215,2.0196,2.0196,2.0214,2.0362,2.0405,2.0498,2.0306,2.0307,2.0309,0,2.079,2.0757,2.0775,2.0705,2.0697,2.07,2.0662,2.0647,2.0598,2.0563,2.0536,2.0472,2.0471,2.0407,2.0404,2.0371,2.0359,2.0331,2.0333,2.0329,2.0259,2.0364,2.0526,2.0541,2.0326,2.0325,2.0323,0,2.0924,2.0884,2.0889,2.0869,2.0787,2.0792,2.0758,2.0705,2.0688,2.0655,2.0643,2.061,2.0593,2.0569,2.0499,2.0459,2.0506,2.0435,2.0478,2.048,2.0493,2.0493,2.0657,2.0483,2.0483,2.0483,2.0482,0,2.1038,2.1053,2.0949,2.0953,2.0967,2.0885,2.0902,2.0859,2.0813,2.0808,2.0727,2.0724,2.0632,2.0619,2.0564,2.0572,2.0564,2.0537,2.0523,2.0545,2.0549,2.0537,2.0529,2.0486,2.0486,2.0485,2.0484,0,2.1191,2.1121,2.1122,2.1045,2.1026,2.1041,2.0975,2.0976,2.0925,2.0919,2.0913,2.0834,2.0814,2.0742,2.0705,2.0668,2.0694,2.0665,2.0712,2.0703,2.0751,2.0748,2.0914,2.0932,2.0746,2.0747,2.0749,0,2.1269,2.1278,2.1203,2.1194,2.1164,2.115,2.1133,2.1053,2.1038,2.0984,2.0992,2.0966,2.0942,2.0915,2.0855,2.0826,2.0797,2.0857,2.0792,2.0815,2.08,2.0801,2.0803,2.0872,2.0874,2.0876,2.0878,0,2.1416,2.1381,2.136,2.1328,2.131,2.128,2.1246,2.1243,2.1154,2.1142,2.1122,2.1103,2.1066,2.1043,2.1005,2.097,2.091,2.0899,2.0907,2.0931,2.0959,2.0947,2.0752,2.0895,2.0893,2.0892,2.0891,2.089,2.1534,2.1539,2.1488,2.1468,2.1434,2.1404,2.1402,2.1352,2.1333,2.1297,2.1251,2.1237,2.1189,2.1132,2.1103,2.1091,2.1058,2.107,2.1073,2.1078,2.109,2.096,2.1084,2.1083,2.1083,2.1082,2.1082,0,2.1679,2.1642,2.1624,2.1579,2.1564,2.1508,2.1468,2.1459,2.1448,2.1408,2.1386,2.1364,2.1342,2.128,2.1251,2.1254,2.1226,2.125,2.1249,2.1243,2.1121,2.1117,2.1273,2.1273,2.1273,2.1273,2.1273,2.1273,2.1752,2.1759,2.1719,2.1709,2.1672,2.1658,2.164,2.1613,2.1581,2.1561,2.1542,2.1501,2.1453,2.1421,2.1398,2.138,2.1375,2.1408,2.1382,2.1269,2.1251,2.1234,2.123,2.1407,2.1407,2.1505,2.1506,2.1506]},{"header":{"parameterUnit":"m.s-1","parameterCategory":1,"la1":30.2991,"la2":30.254,"lo1":-89.0895,"lo2":-89.0444,"dy":0.0017,"dx":0.0017,"nx":28,"ny":28,"refTime":"2023-07-22T09:00:00:Z","depth":0,"parameterNumber":3,"parameterNumberName":"V-component_of_WINDS"},"data":[0,0,0,0,0,0,0,0,0,0,0,0,0,0,0,0,0,0,0,0,0,0,0,0,0,0,0,0,0,0,0,0,0,0,0,0,0,0,0,0,0,0,0,0,0,0,0,0,0,0,0,0,0,0,0,0,0,0,-0.6237,-0.6237,0,-0.6187,-0.6187,-0.6186,-0.6153,-0.6153,-0.6152,-0.6152,-0.6101,-0.6099,-0.6098,0,0,0,0,0,0,0,0,0,0,0,0,0,-0.6305,-0.6304,-0.6237,-0.6237,-0.6236,-0.6187,-0.6187,-0.6186,-0.6153,-0.6153,-0.6152,-0.6152,-0.6101,-0.61,-0.6098,0,0,0,0,0,0,0,0,0,0,0,0,0,-0.6267,-0.6303,-0.6237,-0.6214,-0.6211,-0.6188,-0.6187,-0.6186,-0.6153,-0.6153,-0.6152,-0.6152,-0.6101,-0.61,-0.6098,-0.6094,0,0,-0.6093,-0.6092,0,0,0,0,0,0,0,0,-0.6269,-0.6265,-0.6218,-0.6215,-0.6212,-0.6176,-0.6191,-0.6155,-0.6153,-0.6175,-0.6152,-0.6152,-0.6126,-0.6122,-0.6113,-0.6092,-0.6089,-0.6093,-0.6091,-0.6091,-0.609,0,0,0,0,0,0,0,-0.6272,-0.6267,-0.6217,-0.6217,-0.6214,-0.6206,-0.62,-0.6184,-0.6153,-0.6173,-0.6171,-0.6165,-0.6124,-0.6115,-0.6112,-0.6089,-0.6093,-0.6091,-0.609,-0.6089,-0.6062,-0.6062,0,0,0,0,0,0,-0.6278,-0.6269,-0.6219,-0.6216,-0.6241,-0.6205,-0.6198,-0.6188,-0.6153,-0.6147,-0.6165,-0.6164,-0.6118,-0.6114,-0.611,-0.6104,-0.6091,-0.6089,-0.6088,-0.6062,-0.6062,-0.6062,0,0,0,0,0,0,-0.628,-0.6274,-0.6221,-0.6242,-0.6234,-0.6204,-0.6193,-0.6187,-0.6178,-0.6147,-0.6142,-0.6162,-0.6118,-0.6113,-0.6099,-0.6101,-0.6088,-0.6087,-0.6061,-0.6062,-0.6062,-0.6091,0,0,0,0,0,0,-0.6282,-0.6275,-0.6273,-0.6242,-0.6233,-0.621,-0.6193,-0.6186,-0.6175,-0.6172,-0.6142,-0.6137,-0.6117,-0.6101,-0.6097,-0.6099,-0.6085,-0.6061,-0.6062,-0.6062,-0.6089,-0.6092,-0.6094,0,0,0,0,0,-0.6284,-0.6282,-0.6273,-0.6267,-0.623,-0.6211,-0.6206,-0.6183,-0.6175,-0.6173,-0.6154,-0.6138,-0.6102,-0.61,-0.6095,-0.6096,-0.6061,-0.6061,-0.6062,-0.6088,-0.6092,-0.6094,0,0,0,0,0,0,-0.6314,-0.6278,-0.6267,-0.6255,-0.6236,-0.6205,-0.6201,-0.6187,-0.617,-0.6168,-0.614,-0.6134,-0.6123,-0.6108,-0.6107,-0.6091,-0.6079,-0.6079,-0.6101,-0.6104,-0.6107,-0.611,-0.6084,0,0,0,0,0,-0.6319,-0.6306,-0.6275,-0.6268,-0.6259,-0.6232,-0.6222,-0.6207,-0.6186,-0.6178,-0.6157,-0.6138,-0.6122,-0.6112,-0.6096,-0.6087,-0.6081,-0.6086,-0.6088,-0.6091,-0.6091,-0.6086,-0.6088,-0.6065,-0.6065,-0.6065,0,0,-0.633,-0.6308,-0.6302,-0.6273,-0.6257,-0.6244,-0.6225,-0.6212,-0.6203,-0.6176,-0.6161,-0.6146,-0.6122,-0.6111,-0.6105,-0.6099,-0.6096,-0.6091,-0.6093,-0.6092,-0.6087,-0.6089,-0.6091,-0.6065,-0.6065,-0.6065,0,0,-0.6342,-0.6325,-0.6317,-0.6301,-0.6277,-0.6259,-0.6257,-0.6228,-0.6217,-0.6202,-0.6182,-0.617,-0.6144,-0.6128,-0.6117,-0.6125,-0.611,-0.6121,-0.6134,-0.6129,-0.6131,-0.6133,-0.6136,-0.6138,-0.6121,-0.6121,-0.6121,0,-0.6358,-0.6338,-0.6315,-0.6303,-0.6292,-0.6267,-0.6259,-0.6245,-0.6217,-0.6209,-0.6202,-0.6169,-0.6151,-0.6137,-0.6139,-0.613,-0.6128,-0.6124,-0.6133,-0.6134,-0.6135,-0.6138,-0.614,-0.6122,-0.6122,-0.6122,-0.6122,0,-0.6359,-0.6346,-0.6343,-0.6317,-0.6305,-0.6295,-0.627,-0.6261,-0.6247,-0.623,-0.6216,-0.6194,-0.6174,-0.6169,-0.6155,-0.6153,-0.6149,-0.6138,-0.6126,-0.6139,-0.6142,-0.6143,-0.6124,-0.6124,-0.6123,-0.6123,0,0,-0.6388,-0.635,-0.6349,-0.6338,-0.6309,-0.6299,-0.6288,-0.6269,-0.6262,-0.6243,-0.6234,-0.6213,-0.6203,-0.619,-0.6174,-0.617,-0.6179,-0.6159,-0.6158,-0.6164,-0.6176,-0.6185,-0.6187,-0.6169,-0.6169,-0.6169,-0.6178,0,-0.6397,-0.6377,-0.6356,-0.6344,-0.6332,-0.6309,-0.63,-0.6283,-0.6267,-0.6254,-0.6237,-0.6223,-0.621,-0.6202,-0.6197,-0.6179,-0.6181,-0.6178,-0.6161,-0.616,-0.6167,-0.6188,-0.6197,-0.6207,-0.6179,-0.6179,-0.6179,0,-0.6404,-0.6388,-0.6374,-0.6348,-0.6342,-0.6335,-0.6316,-0.6304,-0.6284,-0.6272,-0.6259,-0.6242,-0.6231,-0.622,-0.6204,-0.6203,-0.6195,-0.6185,-0.6184,-0.6182,-0.6171,-0.6186,-0.6209,-0.6211,-0.618,-0.618,-0.618,0,-0.6427,-0.6402,-0.6391,-0.6381,-0.635,-0.6346,-0.6333,-0.6312,-0.6302,-0.6285,-0.6278,-0.6261,-0.6251,-0.6238,-0.6217,-0.6211,-0.6204,-0.6191,-0.6194,-0.6195,-0.6194,-0.6194,-0.6216,-0.6188,-0.6188,-0.6188,-0.6188,0,-0.6439,-0.6432,-0.6401,-0.6394,-0.6386,-0.6362,-0.6355,-0.634,-0.6321,-0.6312,-0.6291,-0.6282,-0.6255,-0.6243,-0.6227,-0.6217,-0.6212,-0.6203,-0.6199,-0.6205,-0.6206,-0.6199,-0.6198,-0.6189,-0.6189,-0.6189,-0.6188,0,-0.6464,-0.6442,-0.6429,-0.6401,-0.6394,-0.6389,-0.6366,-0.6359,-0.6342,-0.633,-0.6326,-0.63,-0.6286,-0.6264,-0.6242,-0.6231,-0.6224,-0.6216,-0.6231,-0.6228,-0.6233,-0.6233,-0.6251,-0.6253,-0.6224,-0.6225,-0.6225,0,-0.6473,-0.6467,-0.6439,-0.6431,-0.6419,-0.6406,-0.6396,-0.6373,-0.6363,-0.634,-0.6336,-0.632,-0.6306,-0.6283,-0.6263,-0.6246,-0.6239,-0.6246,-0.6236,-0.6243,-0.624,-0.624,-0.624,-0.6249,-0.6249,-0.6249,-0.625,0,-0.6491,-0.6481,-0.6467,-0.645,-0.6439,-0.6424,-0.6408,-0.6403,-0.6377,-0.6367,-0.6352,-0.6341,-0.6319,-0.6304,-0.6285,-0.6272,-0.6257,-0.6253,-0.6253,-0.626,-0.6268,-0.6264,-0.6238,-0.6253,-0.6253,-0.6252,-0.6252,-0.6252,-0.6508,-0.6502,-0.6482,-0.6468,-0.6454,-0.644,-0.6432,-0.6415,-0.6402,-0.6383,-0.637,-0.6356,-0.6337,-0.631,-0.6298,-0.6287,-0.628,-0.628,-0.628,-0.628,-0.6283,-0.627,-0.6283,-0.6283,-0.6283,-0.6283,-0.6283,0,-0.6526,-0.6512,-0.6499,-0.6478,-0.6467,-0.6455,-0.6437,-0.6429,-0.6416,-0.64,-0.6386,-0.637,-0.6355,-0.6334,-0.6317,-0.6312,-0.6305,-0.6309,-0.6309,-0.6306,-0.6289,-0.6291,-0.6315,-0.6315,-0.6315,-0.6315,-0.6315,-0.6315,-0.6534,-0.6524,-0.6512,-0.6495,-0.6481,-0.6467,-0.6458,-0.6445,-0.6432,-0.6414,-0.6402,-0.6389,-0.637,-0.6353,-0.6339,-0.6333,-0.6328,-0.6334,-0.6326,-0.631,-0.6307,-0.6305,-0.6306,-0.6333,-0.6333,-0.6344,-0.6344,-0.6344]}]]